Location: Omaha
(41.2590°N, 95.9380°W)
Time: 16:27:25
(UTC-05:00)

Envisat - Pass Details

Date: 10 October 2017
Orbit: 764 x 766 km, 98.2° (Epoch: 20 October)

Event Time Altitude Azimuth Distance (km) Brightness Sun altitude
Exits shadow 21:47:54 39° 288° (WNW) 1,131 4.2 -33.6°
Drops below altitude 10° 21:51:54 10° 333° (NNW) 2,309 6.0 -34.3°
Sets 21:54:20 0° 340° (NNW) 3,240 6.8 -34.7°
